Terminal Aerodrome Forecast
Issued by NWS

Home | Current Version | Previous Version | Text Only | Print | Product List | Glossary On
Versions: 1 2 3 4 5 6 7 8 9 10 11 12 13 14 15 16 17 18 19 20 21 22 23 24 25 26 27 28 29 30 31 32 33 34 35 36 37 38 39 40 41 42 43 44
000
FTUS45 KGJT 190721 AAA
TAFASE
TAF AMD
KASE 190721Z 1907/2006 00000KT P6SM VCFG BKN050
      TEMPO 1907/1911 2SM -SN BR OVC040
     FM191600 35003KT P6SM FEW050 SCT250
     FM200100 22004KT 6SM BR SCT040 BKN150=

USA.gov is the U.S. government's official web portal to all federal, state and local government web resources and services.